Retour au catalogue

LEMUR 1

ActifScienceSSO
NORAD 40044·PAYLOAD·🇺🇸 United States

Lancé Jun 19, 2014 depuis Dombarovsky

Loading…

Prochains Passages (prochaines 24 heures)

TLE

FraisSource: Space-Track

Époque: Sep 14, 2026, 08:22 UTC

1 40044U 14033AL  26257.34915331  .00001759  00000-0  20562-3 0  9994
2 40044  97.8004  45.2567 0048837 144.2558 216.1943 14.85521747658706

Suivez LEMUR 1 en temps réel avec AllMySat

Download on the App Store